When you browse on this site, cookies collect data to enhance your experience and personalize the content and advertising you see.
Visit our Privacy Policy to learn more. By continuing to use the site, you agree to this use of cookies and data.
  • In Österreich
  • Länderverzeichnis
  • Für 7 Tage
  • Wassertemperatur
  • Satellitenkarten
  • Wetterkarte
  • News
  • Widgets
  • user-avatar
    Anmelden

    Stündliche Wetter Priluk

    Heute, 18 Februar, Montag

    Zeit Temperatur Niederschläge Wind Luftdruck Luftfeuchtigkeit
    00:00 -4°C° 0 mm 4 m/S 755 mmHg 78%
    01:00 -5°C° 0 mm 3 m/S 756 mmHg 78%
    02:00 -5°C° 0 mm 3 m/S 756 mmHg 79%
    03:00 -5°C° 0 mm 3 m/S 757 mmHg 80%
    04:00 -6°C° 0 mm 3 m/S 757 mmHg 81%
    05:00 -5°C° 0 mm 2 m/S 758 mmHg 82%
    06:00 -5°C° 0 mm 2 m/S 759 mmHg 83%
    07:00 -5°C° 0 mm 2 m/S 759 mmHg 84%
    08:00 -6°C° 0 mm 2 m/S 759 mmHg 84%
    09:00 -5°C° 0 mm 2 m/S 760 mmHg 80%
    10:00 -4°C° 0 mm 2 m/S 760 mmHg 76%
    11:00 -1°C° 0 mm 1 m/S 760 mmHg 71%
    12:00 -1°C° 0 mm 1 m/S 760 mmHg 68%
    13:00 0°C° 0 mm 1 m/S 760 mmHg 64%
    14:00 0°C° 0 mm 1 m/S 760 mmHg 60%
    15:00 0°C° 0 mm 1 m/S 760 mmHg 64%
    16:00 -1°C° 0 mm 1 m/S 760 mmHg 68%
    17:00 -2°C° 0 mm 1 m/S 760 mmHg 72%
    18:00 -2°C° 0 mm 1 m/S 760 mmHg 73%
    19:00 -2°C° 0 mm 1 m/S 760 mmHg 75%
    20:00 -4°C° 0 mm 2 m/S 760 mmHg 76%
    21:00 -4°C° 0 mm 2 m/S 759 mmHg 75%
    22:00 -5°C° 0 mm 3 m/S 759 mmHg 74%
    23:00 -5°C° 0 mm 3 m/S 759 mmHg 73%

    Morgen, 19 Februar, Dienstag

    Zeit Temperatur Niederschläge Wind Luftdruck Luftfeuchtigkeit
    00:00 -5°C° 0 mm 3 m/S 758 mmHg 72%
    01:00 -5°C° 0 mm 4 m/S 758 mmHg 70%
    02:00 -5°C° 0 mm 4 m/S 758 mmHg 69%
    03:00 -4°C° 0 mm 4 m/S 757 mmHg 69%
    04:00 -4°C° 0 mm 4 m/S 756 mmHg 70%
    05:00 -4°C° 0 mm 4 m/S 755 mmHg 71%
    06:00 -5°C° 0 mm 5 m/S 755 mmHg 74%
    07:00 -5°C° 0 mm 5 m/S 755 mmHg 77%
    08:00 -4°C° 0 mm 5 m/S 754 mmHg 80%
    09:00 -2°C° 0 mm 5 m/S 754 mmHg 77%
    10:00 -1°C° 0 mm 5 m/S 753 mmHg 75%
    11:00 0°C° 0 mm 5 m/S 753 mmHg 73%
    12:00 0°C° 0 mm 5 m/S 752 mmHg 72%
    13:00 +1°C° 0 mm 5 m/S 752 mmHg 72%
    14:00 +1°C° 0 mm 5 m/S 751 mmHg 72%
    15:00 +1°C° 0 mm 5 m/S 750 mmHg 75%
    16:00 0°C° 0 mm 5 m/S 750 mmHg 78%
    17:00 -1°C° 0 mm 4 m/S 749 mmHg 81%
    18:00 -1°C° 0 mm 5 m/S 749 mmHg 83%
    19:00 -1°C° 0 mm 5 m/S 748 mmHg 85%
    20:00 -1°C° 0 mm 5 m/S 748 mmHg 87%
    21:00 -1°C° 0 mm 5 m/S 747 mmHg 88%
    22:00 0°C° 0 mm 4 m/S 746 mmHg 88%
    23:00 0°C° 0 mm 4 m/S 746 mmHg 89%

    übermorgen, 20 Februar, Mittwoch

    Zeit Temperatur Niederschläge Wind Luftdruck Luftfeuchtigkeit
    00:00 0°C° 0 mm 4 m/S 745 mmHg 89%
    01:00 0°C° 0 mm 4 m/S 745 mmHg 89%
    02:00 0°C° 0 mm 4 m/S 744 mmHg 89%
    03:00 0°C° 0.4 mm 4 m/S 744 mmHg 89%
    04:00 0°C° 0.4 mm 5 m/S 743 mmHg 88%
    05:00 0°C° 0.4 mm 5 m/S 743 mmHg 88%
    06:00 0°C° 0.1 mm 4 m/S 743 mmHg 89%
    07:00 +1°C° 0.1 mm 4 m/S 743 mmHg 90%
    08:00 +1°C° 0.1 mm 4 m/S 743 mmHg 90%
    09:00 +1°C° 0 mm 4 m/S 743 mmHg 86%
    10:00 +3°C° 0 mm 4 m/S 743 mmHg 82%
    11:00 +2°C° 0 mm 5 m/S 743 mmHg 78%
    12:00 +2°C° 0.2 mm 5 m/S 742 mmHg 79%
    13:00 +2°C° 0.2 mm 5 m/S 742 mmHg 80%
    14:00 +1°C° 0.2 mm 5 m/S 742 mmHg 82%
    15:00 +1°C° 0.2 mm 5 m/S 742 mmHg 82%
    16:00 +1°C° 0.2 mm 5 m/S 742 mmHg 82%
    17:00 +1°C° 0.2 mm 5 m/S 742 mmHg 82%
    18:00 0°C° 0.1 mm 5 m/S 742 mmHg 78%
    19:00 -1°C° 0.1 mm 5 m/S 742 mmHg 75%
    20:00 -2°C° 0.1 mm 4 m/S 742 mmHg 71%
    21:00 -2°C° 0.1 mm 5 m/S 743 mmHg 74%
    22:00 -4°C° 0.1 mm 5 m/S 743 mmHg 76%
    23:00 -4°C° 0.1 mm 5 m/S 743 mmHg 78%

    21 Februar, Donnerstag

    Zeit Temperatur Niederschläge Wind Luftdruck Luftfeuchtigkeit
    00:00 -4°C° 0.1 mm 6 m/S 743 mmHg 78%
    01:00 -5°C° 0.1 mm 6 m/S 744 mmHg 78%
    02:00 -5°C° 0.1 mm 6 m/S 744 mmHg 78%
    03:00 -5°C° 0.2 mm 6 m/S 744 mmHg 77%
    04:00 -5°C° 0.2 mm 6 m/S 744 mmHg 76%
    05:00 -5°C° 0.2 mm 6 m/S 744 mmHg 76%
    06:00 -5°C° 0.1 mm 6 m/S 745 mmHg 73%
    07:00 -6°C° 0.1 mm 6 m/S 746 mmHg 71%
    08:00 -7°C° 0.1 mm 7 m/S 746 mmHg 68%
    09:00 -7°C° 0.1 mm 7 m/S 748 mmHg 68%
    10:00 -7°C° 0.1 mm 7 m/S 749 mmHg 67%
    11:00 -7°C° 0.1 mm 7 m/S 750 mmHg 67%
    12:00 -6°C° 0.1 mm 6 m/S 750 mmHg 66%
    13:00 -6°C° 0.1 mm 6 m/S 751 mmHg 66%
    14:00 -6°C° 0.1 mm 6 m/S 752 mmHg 65%
    15:00 -8°C° 0 mm 6 m/S 753 mmHg 66%
    16:00 -8°C° 0 mm 6 m/S 754 mmHg 67%
    17:00 -8°C° 0 mm 6 m/S 755 mmHg 68%
    18:00 -9°C° 0 mm 6 m/S 756 mmHg 68%
    19:00 -9°C° 0 mm 6 m/S 757 mmHg 68%
    20:00 -10°C° 0 mm 6 m/S 758 mmHg 68%
    21:00 -10°C° 0 mm 5 m/S 758 mmHg 67%
    22:00 -10°C° 0 mm 5 m/S 759 mmHg 67%
    23:00 -11°C° 0 mm 5 m/S 759 mmHg 67%

    22 Februar, Freitag

    Zeit Temperatur Niederschläge Wind Luftdruck Luftfeuchtigkeit
    00:00 -11°C° 0 mm 5 m/S 760 mmHg 68%
    01:00 -11°C° 0 mm 5 m/S 761 mmHg 69%
    02:00 -12°C° 0 mm 5 m/S 761 mmHg 69%
    03:00 -12°C° 0 mm 5 m/S 762 mmHg 70%
    04:00 -12°C° 0 mm 5 m/S 763 mmHg 71%
    05:00 -13°C° 0 mm 5 m/S 763 mmHg 72%
    06:00 -11°C° 0 mm 4 m/S 764 mmHg 70%
    07:00 -11°C° 0 mm 4 m/S 765 mmHg 68%
    08:00 -11°C° 0 mm 4 m/S 766 mmHg 66%
    09:00 -9°C° 0 mm 3 m/S 767 mmHg 63%
    10:00 -8°C° 0 mm 3 m/S 767 mmHg 60%
    11:00 -7°C° 0 mm 3 m/S 768 mmHg 58%
    12:00 -7°C° 0 mm 3 m/S 768 mmHg 57%
    13:00 -6°C° 0 mm 3 m/S 768 mmHg 56%
    14:00 -5°C° 0 mm 3 m/S 769 mmHg 55%
    15:00 -6°C° 0 mm 3 m/S 769 mmHg 59%
    16:00 -5°C° 0 mm 2 m/S 769 mmHg 63%
    17:00 -6°C° 0 mm 2 m/S 769 mmHg 67%
    18:00 -6°C° 0 mm 2 m/S 770 mmHg 70%
    19:00 -7°C° 0 mm 2 m/S 770 mmHg 73%
    20:00 -7°C° 0 mm 2 m/S 770 mmHg 77%
    21:00 -7°C° 0 mm 2 m/S 770 mmHg 76%
    22:00 -7°C° 0 mm 1 m/S 770 mmHg 76%
    23:00 -7°C° 0 mm 1 m/S 770 mmHg 75%

    23 Februar, Samstag

    Zeit Temperatur Niederschläge Wind Luftdruck Luftfeuchtigkeit
    00:00 -7°C° 0 mm 1 m/S 770 mmHg 75%
    01:00 -7°C° 0 mm 1 m/S 769 mmHg 74%
    02:00 -7°C° 0 mm 1 m/S 769 mmHg 74%
    03:00 -7°C° 0 mm 2 m/S 768 mmHg 71%
    04:00 -7°C° 0 mm 2 m/S 767 mmHg 68%
    05:00 -6°C° 0 mm 2 m/S 767 mmHg 65%
    06:00 -6°C° 0.5 mm 2 m/S 766 mmHg 75%
    07:00 -7°C° 0.5 mm 3 m/S 765 mmHg 84%
    08:00 -7°C° 0.5 mm 3 m/S 764 mmHg 93%
    09:00 -7°C° 1 mm 3 m/S 764 mmHg 93%
    10:00 -6°C° 1 mm 3 m/S 763 mmHg 93%
    11:00 -6°C° 1 mm 3 m/S 762 mmHg 92%
    12:00 -5°C° 0.2 mm 3 m/S 762 mmHg 91%
    13:00 -4°C° 0.2 mm 3 m/S 761 mmHg 90%
    14:00 -2°C° 0.2 mm 3 m/S 761 mmHg 90%
    15:00 -2°C° 0.1 mm 3 m/S 761 mmHg 91%
    16:00 -2°C° 0.1 mm 2 m/S 761 mmHg 92%
    17:00 -1°C° 0.1 mm 2 m/S 761 mmHg 93%
    18:00 -1°C° 0.1 mm 2 m/S 761 mmHg 94%
    19:00 -1°C° 0.1 mm 2 m/S 761 mmHg 95%
    20:00 +1°C° 0.1 mm 2 m/S 761 mmHg 96%
    21:00 +1°C° 0 mm 2 m/S 761 mmHg 96%
    22:00 +1°C° 0 mm 2 m/S 761 mmHg 97%
    23:00 +2°C° 0 mm 1 m/S 762 mmHg 97%
    Mehr zeigen